WD6FGE Weather Reports


Display with metric or nautical units.
time (UTC)temp
F
wind
direction
speed
MPH
gust
MPH
rain 1hr
in
rain 24hr
in
rain mn
in
humidity
%
barometer
mb
20171023222040 79 340 2.0 12.0 0.00 0.00 0.00 37 1030.3
20171023221102 78 345 3.0 13.0 0.00 0.00 0.00 36 1030.6
20171023220052 78 22 2.0 13.0 0.00 0.00 0.00 38 1030.7
20171023215019 78 22 4.0 11.0 0.00 0.00 0.00 38 1030.9
20171023214030 78 11 3.0 11.0 0.00 0.00 0.00 38 1031.1
20171023212954 78 340 2.0 11.0 0.00 0.00 0.00 39 1031.2
20171023212008 77 24 4.0 11.0 0.00 0.00 0.00 39 1031.4
20171023210939 77 288 4.0 9.0 0.00 0.00 0.00 40 1031.5
20171023205939 76 58 3.0 8.0 0.00 0.00 0.00 42 1031.7
20171023204906 76 38 3.0 8.0 0.00 0.00 0.00 43 1031.9
20171023203841 75 326 2.0 9.0 0.00 0.00 0.00 43 1032.0
20171023202823 74 10 3.0 9.0 0.00 0.00 0.00 45 1032.2
20171023201818 73 0 2.0 7.0 0.00 0.00 0.00 45 1032.4
20171023200753 72 33 3.0 8.0 0.00 0.00 0.00 47 1032.6
20171023195754 72 55 2.0 8.0 0.00 0.00 0.00 48 1032.8
20171023194725 71 111 2.0 8.0 0.00 0.00 0.00 49 1033.0
20171023193721 71 143 1.0 7.0 0.00 0.00 0.00 50 1033.2
20171023192653 69 109 2.0 9.0 0.00 0.00 0.00 52 1033.4
20171023191631 69 5 1.0 9.0 0.00 0.00 0.00 53 1033.5
20171023190644 67 70 3.0 8.0 0.00 0.00 0.00 55 1033.6
20171023185700 67 5 2.0 8.0 0.00 0.00 0.00 55 1033.8
20171023184717 66 355 1.0 7.0 0.00 0.00 0.00 58 1033.9
20171023183723 64 74 2.0 6.0 0.00 0.00 0.00 60 1033.9
20171023182701 63 349 1.0 5.0 0.00 0.00 0.00 62 1034.0
20171023181648 62 16 1.0 7.0 0.00 0.00 0.00 64 1034.1
20171023180707 61 39 2.0 7.0 0.00 0.00 0.00 66 1034.2
20171023175703 61 355 2.0 6.0 0.00 0.00 0.00 69 1034.3
20171023174637 59 355 1.0 4.0 0.00 0.00 0.00 71 1034.3
20171023173645 58 48 1.0 4.0 0.00 0.00 0.00 76 1034.4
20171023172630 56 81 0.0 1.0 0.00 0.00 0.00 80 1034.6
20171023171647 53 76 1.0 3.0 0.00 0.00 0.00 86 1034.7
20171023170643 51 105 0.0 2.0 0.00 0.00 0.00 91 1034.8
20171023165643 49 149 0.0 1.0 0.00 0.00 0.00 92 1034.9
20171023164612 47 153 0.0 0.0 0.00 0.00 0.00 92 1034.9
20171023163604 46 153 0.0 2.0 0.00 0.00 0.00 92 1034.9
20171023162531 44 191 0.0 0.0 0.00 0.00 0.00 92 1035.0
20171023161509 42 267 0.0 0.0 0.00 0.00 0.00 92 1035.1
20171023160520 40 267 0.0 0.0 0.00 0.00 0.00 92 1035.0
20171023155451 40 267 0.0 0.0 0.00 0.00 0.00 92 1035.0
20171023154424 38 267 0.0 0.0 0.00 0.00 0.00 92 1034.8
20171023153353 37 267 0.0 0.0 0.00 0.00 0.00 92 1034.7
20171023152354 37 267 0.0 0.0 0.00 0.00 0.00 92 1034.6
20171023151321 36 267 0.0 0.0 0.00 0.00 0.00 92 1034.4
20171023150352 36 267 0.0 0.0 0.00 0.00 0.00 92 1034.3
20171023145309 36 267 0.0 0.0 0.00 0.00 0.00 92 1034.1
20171023144316 36 267 0.0 1.0 0.00 0.00 0.00 91 1034.2
20171023143247 36 267 0.0 1.0 0.00 0.00 0.00 92 1034.2
20171023142303 36 150 0.0 0.0 0.00 0.00 0.00 91 1034.2
20171023141322 36 150 0.0 0.0 0.00 0.00 0.00 91 1034.2
20171023140336 36 150 0.0 0.0 0.00 0.00 0.00 91 1034.1
20171023135357 36 150 0.0 0.0 0.00 0.00 0.00 91 1034.0
20171023134350 36 150 0.0 0.0 0.00 0.00 0.00 91 1034.0
20171023133342 37 173 0.0 2.0 0.00 0.00 0.00 92 1033.9
20171023132310 36 240 0.0 1.0 0.00 0.00 0.00 91 1033.9
20171023131314 37 240 0.0 0.0 0.00 0.00 0.00 91 1033.9
20171023130256 37 240 0.0 0.0 0.00 0.00 0.00 91 1034.0
20171023125310 37 240 0.0 1.0 0.00 0.00 0.00 91 1033.9
20171023124314 37 240 0.0 0.0 0.00 0.00 0.00 91 1033.8
20171023123330 37 239 0.0 0.0 0.00 0.00 0.00 91 1033.8
20171023122333 37 239 0.0 0.0 0.00 0.00 0.00 91 1033.7
20171023121314 37 239 0.0 0.0 0.00 0.00 0.00 91 1033.6
20171023120331 37 239 0.0 0.0 0.00 0.00 0.00 91 1033.5
20171023115338 37 239 0.0 0.0 0.00 0.00 0.00 91 1033.4
20171023114313 37 240 0.0 0.0 0.00 0.00 0.00 91 1033.2
20171023113328 37 240 0.0 1.0 0.00 0.00 0.00 91 1033.1
20171023112344 37 168 0.0 0.0 0.00 0.00 0.00 91 1033.0
20171023111351 38 242 0.0 0.0 0.00 0.00 0.00 91 1032.8
20171023110352 39 242 0.0 0.0 0.00 0.00 0.00 91 1032.8
20171023105334 38 242 0.0 0.0 0.00 0.00 0.00 91 1032.9
20171023104313 38 242 0.0 0.0 0.00 0.00 0.00 91 1032.9
20171023103323 39 242 0.0 0.0 0.00 0.00 0.00 91 1032.8
20171023102312 39 242 0.0 0.0 0.00 0.00 0.00 91 1033.0
20171023101334 39 242 0.0 0.0 0.00 0.00 0.00 90 1033.1
20171023100325 39 242 0.0 0.0 0.00 0.00 0.00 91 1033.1
20171023095312 39 242 0.0 0.0 0.00 0.00 0.00 91 1033.3
20171023094240 39 242 0.0 0.0 0.00 0.00 0.00 90 1033.3
20171023093252 39 242 0.0 0.0 0.00 0.00 0.00 90 1033.3
20171023092310 39 242 0.0 0.0 0.00 0.00 0.00 90 1033.4
20171023091245 40 242 0.0 0.0 0.00 0.00 0.00 90 1033.3
20171023090212 40 242 0.0 0.0 0.00 0.00 0.00 90 1033.3
20171023085234 41 242 0.0 0.0 0.00 0.00 0.00 90 1033.3
20171023084205 41 242 0.0 0.0 0.00 0.00 0.00 90 1033.1
20171023083200 41 242 0.0 0.0 0.00 0.00 0.00 90 1033.0
20171023082206 41 242 0.0 0.0 0.00 0.00 0.00 90 1032.8
20171023081156 41 242 0.0 0.0 0.00 0.00 0.00 90 1032.7
20171023080129 41 242 0.0 0.0 0.00 0.00 0.00 90 1032.7
20171023075149 42 242 0.0 0.0 0.00 0.00 0.00 90 1032.5
20171023074132 42 242 0.0 0.0 0.00 0.00 0.00 90 1032.5
20171023073104 42 242 0.0 0.0 0.00 0.00 0.00 89 1032.5
20171023072113 42 242 0.0 0.0 0.00 0.00 0.00 89 1032.4
20171023071121 42 242 0.0 0.0 0.00 0.00 0.00 89 1032.4
20171023070108 42 242 0.0 0.0 0.00 0.00 0.00 89 1032.6
20171023065131 43 242 0.0 0.0 0.00 0.00 0.00 89 1032.6
20171023064152 44 242 0.0 0.0 0.00 0.00 0.00 89 1032.5
20171023063115 43 230 0.0 0.0 0.00 0.00 0.00 89 1032.4
20171023062055 44 230 0.0 0.0 0.00 0.00 0.00 88 1032.4
20171023061037 44 231 0.0 0.0 0.00 0.00 0.00 88 1032.4
20171023060055 44 231 0.0 0.0 0.00 0.00 0.00 87 1032.4
20171023055036 45 231 0.0 0.0 0.00 0.00 0.00 88 1032.4
20171023054041 45 231 0.0 0.0 0.00 0.00 0.00 88 1032.2
20171023053007 45 231 0.0 0.0 0.00 0.00 0.00 87 1032.1
20171023051936 45 231 0.0 0.0 0.00 0.00 0.00 86 1032.2
20171023050930 46 231 0.0 0.0 0.00 0.00 0.00 86 1032.1
20171023045925 46 231 0.0 0.0 0.00 0.00 0.00 86 1032.2
20171023044912 46 230 0.0 0.0 0.00 0.00 0.00 84 1032.1
20171023042920 48 230 0.0 0.0 0.00 0.00 0.00 86 1031.9
20171023041904 48 230 0.0 0.0 0.00 0.00 0.00 84 1031.6
20171023040902 48 230 0.0 0.0 0.00 0.00 0.00 83 1031.6
20171023035924 49 230 0.0 0.0 0.00 0.00 0.00 82 1031.7
20171023034858 49 230 0.0 0.0 0.00 0.00 0.00 80 1031.6
20171023033837 50 230 0.0 0.0 0.00 0.00 0.00 81 1031.5
20171023032810 51 229 0.0 0.0 0.00 0.00 0.00 81 1031.4
20171023031830 51 229 0.0 0.0 0.00 0.00 0.00 79 1031.4
20171023030832 52 132 0.0 0.0 0.00 0.00 0.00 77 1031.2
20171023025820 53 132 0.0 0.0 0.00 0.00 0.00 78 1031.0
20171023024820 53 136 1.0 3.0 0.00 0.00 0.00 76 1031.0
20171023023804 54 252 0.0 0.0 0.00 0.00 0.00 73 1030.9
20171023022802 56 252 0.0 0.0 0.00 0.00 0.00 72 1030.7
20171023021739 56 251 0.0 1.0 0.00 0.00 0.00 71 1030.5
20171023020703 57 252 0.0 0.0 0.00 0.00 0.00 69 1030.4
20171023015700 57 252 0.0 1.0 0.00 0.00 0.00 68 1030.3
20171023014629 58 251 0.0 0.0 0.00 0.00 0.00 69 1030.1
20171023013618 59 257 0.0 1.0 0.00 0.00 0.00 67 1029.9
20171023012610 60 207 0.0 2.0 0.00 0.00 0.00 66 1029.7
20171023011632 60 238 0.0 1.0 0.00 0.00 0.00 65 1029.7
20171023010638 61 238 0.0 2.0 0.00 0.00 0.00 65 1029.5
20171023005651 62 247 0.0 4.0 0.00 0.00 0.00 62 1029.5
20171023004620 64 249 0.0 4.0 0.00 0.00 0.00 60 1029.4
20171023003611 65 302 0.0 1.0 0.00 0.00 0.00 58 1029.4
20171023002553 66 265 0.0 2.0 0.00 0.00 0.00 57 1029.3
20171023001606 67 255 0.0 4.0 0.00 0.00 0.00 54 1029.1
20171023000532 68 254 0.0 4.0 0.00 0.00 0.00 52 1029.1
20171022235517 68 232 1.0 6.0 0.00 0.00 0.00 51 1029.0
20171022234513 68 230 1.0 6.0 0.00 0.00 0.00 50 1028.9
20171022233521 69 189 1.0 7.0 0.00 0.00 0.00 50 1029.1
20171022232455 69 253 1.0 7.0 0.00 0.00 0.00 50 1029.3
20171022231458 69 300 0.0 3.0 0.00 0.00 0.00 50 1029.3
20171022230519 69 304 1.0 4.0 0.00 0.00 0.00 49 1029.4
20171022225530 68 265 1.0 5.0 0.00 0.00 0.00 50 1029.5
20171022224536 68 298 1.0 6.0 0.00 0.00 0.00 51 1029.5
20171022223556 69 215 1.0 6.0 0.00 0.00 0.00 50 1029.5
20171022222537 69 205 2.0 6.0 0.00 0.00 0.00 51 1029.6